WB6TTB Weather Reports


Display with metric or nautical units.
time (UTC)temp
F
wind
direction
speed
MPH
gust
MPH
rain 1hr
in
rain 24hr
in
rain mn
in
humidity
%
barometer
mb
20260905073603 57 0 0.0 0.0 0.00 0.01 0.00 87 1013.6
20260905073003 57 0 0.0 0.0 0.00 0.01 0.00 87 1013.6
20260905072403 57 276 0.0 1.0 0.00 0.01 0.00 88 1013.6
20260905071804 58 276 0.0 1.0 0.00 0.01 0.00 89 1013.6
20260905071204 58 0 0.0 0.0 0.00 0.01 0.00 89 1013.6
20260905070604 58 0 0.0 0.0 0.00 0.01 0.00 89 1013.6
20260905070004 58 0 0.0 0.0 0.00 0.01 0.00 88 1013.6
20260905065404 58 0 0.0 0.0 0.00 0.01 0.01 88 1013.5
20260905064803 58 0 0.0 0.0 0.00 0.01 0.01 87 1013.6
20260905064203 58 0 0.0 0.0 0.00 0.01 0.01 87 1013.6
20260905063604 58 276 0.0 1.0 0.00 0.01 0.01 87 1013.6
20260905063003 58 281 0.0 2.0 0.00 0.01 0.01 86 1013.5
20260905062403 58 284 0.0 1.0 0.00 0.01 0.01 85 1013.5
20260905061803 58 284 0.0 2.0 0.00 0.01 0.01 85 1013.5
20260905060603 58 281 0.0 1.0 0.00 0.01 0.01 84 1013.6
20260905060004 58 281 0.0 1.0 0.00 0.01 0.01 84 1013.6
20260905055403 58 281 0.0 1.0 0.00 0.01 0.01 84 1013.7
20260905054803 58 0 0.0 1.0 0.00 0.01 0.01 83 1013.6
20260905054203 58 0 0.0 1.0 0.00 0.01 0.01 83 1013.7
20260905053603 59 0 0.0 0.0 0.00 0.01 0.01 83 1013.8
20260905053003 59 0 0.0 0.0 0.00 0.01 0.01 82 1013.8
20260905052403 59 281 0.0 1.0 0.00 0.01 0.01 82 1013.8
20260905051803 59 0 0.0 0.0 0.00 0.01 0.01 81 1013.9
20260905051203 59 0 0.0 0.0 0.00 0.01 0.01 80 1013.9
20260905050603 59 0 0.0 0.0 0.00 0.01 0.01 79 1013.9
20260905050004 59 0 0.0 0.0 0.00 0.01 0.01 79 1013.9
20260905045404 59 0 0.0 0.0 0.00 0.01 0.01 78 1013.9
20260905044804 59 281 0.0 1.0 0.00 0.01 0.01 78 1013.9
20260905044203 59 281 0.0 1.0 0.00 0.01 0.01 77 1013.9
20260905043604 59 0 0.0 0.0 0.00 0.01 0.01 77 1013.8
20260905043003 59 281 0.0 2.0 0.00 0.01 0.01 77 1013.8
20260905042403 59 281 0.0 2.0 0.00 0.01 0.01 76 1013.7
20260905041804 60 282 0.0 3.0 0.00 0.01 0.01 76 1013.6
20260905041204 60 280 0.0 3.0 0.00 0.01 0.01 76 1013.6
20260905040603 60 274 0.0 2.0 0.00 0.01 0.01 75 1013.6
20260905040003 60 272 0.0 2.0 0.00 0.01 0.01 75 1013.5
20260905035403 59 272 0.0 2.0 0.00 0.01 0.01 76 1013.5
20260905034803 59 273 0.0 2.0 0.00 0.01 0.01 76 1013.5
20260905034203 59 0 0.0 0.0 0.00 0.01 0.01 76 1013.5
20260905033603 59 0 0.0 0.0 0.00 0.01 0.01 77 1013.4
20260905033003 59 0 0.0 0.0 0.00 0.01 0.01 78 1013.3
20260905032403 59 0 0.0 0.0 0.00 0.01 0.01 79 1013.3
20260905031803 60 0 0.0 0.0 0.00 0.01 0.01 81 1013.4
20260905031203 60 0 0.0 0.0 0.00 0.01 0.01 83 1013.4
20260905030603 60 0 0.0 0.0 0.00 0.01 0.01 85 1013.4
20260905030003 61 0 0.0 0.0 0.00 0.01 0.01 85 1013.3
20260905025403 61 275 0.0 3.0 0.00 0.01 0.01 85 1013.4
20260905024803 61 275 0.0 3.0 0.00 0.01 0.01 85 1013.3
20260905024204 62 275 0.0 3.0 0.00 0.01 0.01 84 1013.3
20260905023604 62 275 1.0 3.0 0.00 0.01 0.01 83 1013.3
20260905023004 62 275 1.0 3.0 0.00 0.01 0.01 83 1013.3
20260905022404 63 275 1.0 4.0 0.00 0.01 0.01 82 1013.2
20260905021804 63 271 3.0 6.0 0.00 0.01 0.01 82 1013.3
20260905021203 64 267 3.0 7.0 0.00 0.01 0.01 81 1013.2
20260905020603 64 267 3.0 8.0 0.00 0.01 0.01 81 1013.2
20260905020004 64 266 4.0 8.0 0.00 0.01 0.01 80 1013.2
20260905015403 65 265 5.0 9.0 0.00 0.01 0.01 80 1013.2
20260905014803 65 263 5.0 10.0 0.00 0.01 0.01 78 1013.2
20260905014203 65 265 5.0 10.0 0.00 0.01 0.01 77 1013.2
20260905013603 66 267 5.0 8.0 0.00 0.01 0.01 77 1013.2
20260905013003 66 267 5.0 10.0 0.00 0.01 0.01 78 1013.2
20260905012403 66 266 5.0 10.0 0.00 0.01 0.01 78 1013.2
20260905011803 66 263 6.0 11.0 0.00 0.01 0.01 78 1013.2
20260905011203 66 263 7.0 13.0 0.00 0.03 0.01 78 1013.2
20260905010603 66 265 7.0 13.0 0.00 0.03 0.01 78 1013.1
20260905010003 66 264 7.0 13.0 0.00 0.03 0.01 79 1013.2
20260905005403 66 267 7.0 12.0 0.00 0.03 0.01 80 1013.1
20260905004803 66 269 7.0 12.0 0.00 0.03 0.01 79 1013.1
20260905004203 66 271 8.0 12.0 0.00 0.03 0.01 81 1013.1
20260905003004 66 267 9.0 16.0 0.00 0.04 0.01 81 1013.1
20260905002404 66 267 10.0 16.0 0.00 0.04 0.01 80 1013.0
20260905001804 66 267 10.0 18.0 0.00 0.04 0.01 80 1013.0
20260905001204 66 267 10.0 18.0 0.00 0.04 0.01 79 1013.1
20260905000604 66 270 10.0 17.0 0.00 0.04 0.01 78 1013.1
20260905000004 66 267 11.0 17.0 0.00 0.04 0.01 78 1013.1
20260904235403 66 265 11.0 17.0 0.00 0.04 0.01 78 1013.1
20260904234803 66 266 11.0 17.0 0.00 0.05 0.01 76 1013.2
20260904234203 66 268 11.0 17.0 0.00 0.05 0.01 75 1013.2
20260904233603 66 266 11.0 17.0 0.00 0.05 0.01 77 1013.2
20260904233003 66 268 11.0 16.0 0.00 0.05 0.01 77 1013.1
20260904232403 67 268 11.0 17.0 0.00 0.05 0.01 77 1013.1
20260904231803 67 265 10.0 17.0 0.00 0.05 0.01 75 1013.1
20260904231203 68 266 11.0 17.0 0.00 0.05 0.01 74 1013.3
20260904230603 68 266 10.0 17.0 0.00 0.05 0.01 74 1013.2
20260904230003 68 264 10.0 16.0 0.00 0.05 0.01 71 1013.2
20260904225403 68 266 10.0 16.0 0.00 0.05 0.01 76 1013.3
20260904224803 68 267 10.0 16.0 0.00 0.05 0.01 77 1013.4
20260904224203 67 270 10.0 15.0 0.00 0.05 0.01 77 1013.4
20260904223603 68 267 10.0 14.0 0.00 0.05 0.01 77 1013.4
20260904223003 67 267 10.0 14.0 0.00 0.05 0.01 77 1013.5
20260904222403 68 270 9.0 14.0 0.00 0.05 0.01 78 1013.5
20260904221803 68 267 8.0 15.0 0.00 0.05 0.01 78 1013.6
20260904221204 67 264 9.0 15.0 0.00 0.05 0.01 79 1013.5
20260904220604 67 269 10.0 16.0 0.00 0.05 0.01 78 1013.6
20260904220004 67 268 10.0 18.0 0.00 0.05 0.01 79 1013.7
20260904215404 66 265 11.0 18.0 0.00 0.05 0.01 78 1013.7
20260904214803 66 265 11.0 19.0 0.00 0.05 0.01 80 1013.7
20260904214203 66 267 11.0 19.0 0.00 0.05 0.01 80 1013.6
20260904213603 66 269 11.0 18.0 0.00 0.05 0.01 80 1013.7
20260904213003 66 267 10.0 18.0 0.00 0.05 0.01 80 1013.6
20260904212403 67 265 10.0 17.0 0.00 0.05 0.01 79 1013.7
20260904211803 66 264 10.0 17.0 0.00 0.05 0.01 80 1013.7
20260904211203 66 266 10.0 15.0 0.00 0.05 0.01 81 1013.7
20260904210603 66 266 10.0 15.0 0.00 0.05 0.01 81 1013.7
20260904210003 66 267 10.0 17.0 0.00 0.05 0.01 81 1013.7
20260904205403 66 268 10.0 17.0 0.00 0.05 0.01 82 1013.7
20260904204803 66 269 9.0 15.0 0.00 0.05 0.01 82 1013.7
20260904204203 66 271 9.0 15.0 0.00 0.05 0.01 82 1013.7
20260904203603 66 270 8.0 14.0 0.00 0.05 0.01 83 1013.7
20260904203003 65 267 9.0 16.0 0.00 0.05 0.01 84 1013.7
20260904202403 65 265 10.0 16.0 0.00 0.05 0.01 83 1013.7
20260904201803 65 267 9.0 16.0 0.00 0.05 0.01 83 1013.7
20260904201203 66 266 8.0 13.0 0.00 0.05 0.01 83 1013.7
20260904200604 66 265 8.0 12.0 0.00 0.05 0.01 82 1013.7
20260904200004 66 266 8.0 13.0 0.00 0.05 0.01 82 1013.7
20260904195404 65 270 7.0 13.0 0.00 0.05 0.01 83 1013.8
20260904194804 65 267 7.0 14.0 0.00 0.05 0.01 84 1013.8
20260904194204 65 266 7.0 14.0 0.00 0.05 0.01 84 1013.8
20260904193603 65 267 6.0 11.0 0.00 0.05 0.01 83 1013.9
20260904193004 65 265 6.0 11.0 0.00 0.05 0.01 82 1013.9
20260904192403 65 268 4.0 11.0 0.00 0.05 0.01 80 1013.9
20260904191803 66 274 3.0 7.0 0.00 0.05 0.01 80 1013.9
20260904191203 65 269 3.0 9.0 0.00 0.05 0.01 79 1014.0
20260904190603 65 266 2.0 8.0 0.00 0.05 0.01 81 1014.0
20260904190003 65 275 2.0 7.0 0.00 0.05 0.01 81 1014.0
20260904185403 65 274 2.0 7.0 0.00 0.05 0.01 82 1014.0
20260904184803 65 267 2.0 7.0 0.00 0.05 0.01 82 1014.0
20260904184203 64 273 2.0 7.0 0.00 0.05 0.01 83 1014.0
20260904183603 64 273 2.0 7.0 0.00 0.05 0.01 86 1014.0
20260904182403 64 272 2.0 4.0 0.00 0.05 0.01 86 1014.0
20260904181803 64 260 2.0 7.0 0.00 0.05 0.01 86 1014.0
20260904181203 63 266 2.0 7.0 0.00 0.05 0.01 87 1013.9
20260904180603 63 272 1.0 6.0 0.00 0.05 0.01 88 1013.9
20260904180003 62 273 2.0 6.0 0.00 0.05 0.01 89 1013.9
20260904175404 62 269 1.0 6.0 0.00 0.05 0.01 89 1013.9
20260904174804 62 261 1.0 4.0 0.00 0.05 0.01 93 1013.9
20260904174204 62 255 1.0 4.0 0.00 0.05 0.01 93 1013.9
20260904173604 62 253 1.0 4.0 0.00 0.05 0.01 96 1013.9
20260904173004 61 266 1.0 4.0 0.00 0.05 0.01 97 1013.9
20260904172403 60 272 1.0 4.0 0.00 0.05 0.01 98 1013.8
20260904171804 60 272 1.0 3.0 0.00 0.05 0.01 98 1013.8
20260904171204 59 272 1.0 3.0 0.00 0.05 0.01 99 1013.8
20260904170604 59 272 1.0 4.0 0.00 0.05 0.01 99 1013.7
20260904165403 58 273 1.0 3.0 0.00 0.05 0.01 100 1013.6
20260904164803 58 273 1.0 3.0 0.00 0.05 0.01 100 1013.6
20260904164203 57 272 0.0 3.0 0.00 0.05 0.01 100 1013.6
20260904163603 57 272 0.0 4.0 0.00 0.05 0.01 100 1013.5
20260904163003 57 272 1.0 4.0 0.00 0.05 0.01 100 1013.4
20260904162403 57 272 0.0 2.0 0.00 0.05 0.01 100 1013.4
20260904161803 57 272 0.0 2.0 0.00 0.05 0.01 100 1013.4
20260904160603 56 272 0.0 2.0 0.00 0.05 0.01 100 1013.5
20260904160003 56 272 0.0 2.0 0.00 0.05 0.01 100 1013.4
20260904155403 56 272 0.0 1.0 0.00 0.05 0.01 100 1013.4
20260904154803 56 272 0.0 1.0 0.00 0.05 0.01 100 1013.4
20260904154203 56 272 0.0 1.0 0.00 0.05 0.01 100 1013.4
20260904153604 56 272 0.0 1.0 0.00 0.05 0.01 100 1013.3
20260904153004 56 0 0.0 1.0 0.00 0.05 0.01 100 1013.3
20260904152404 55 272 0.0 1.0 0.00 0.05 0.01 100 1013.2
20260904151804 55 272 0.0 1.0 0.00 0.05 0.01 100 1013.1
20260904151204 55 272 0.0 1.0 0.00 0.05 0.01 100 1013.1
20260904150603 55 0 0.0 0.0 0.00 0.05 0.01 100 1013.1
20260904150004 54 0 0.0 0.0 0.00 0.05 0.01 100 1013.0
20260904145403 54 0 0.0 0.0 0.00 0.05 0.01 100 1012.9
20260904144803 54 0 0.0 0.0 0.00 0.05 0.01 99 1012.8
20260904144203 54 0 0.0 0.0 0.00 0.05 0.01 99 1012.7
20260904143603 54 0 0.0 0.0 0.00 0.05 0.01 99 1012.7
20260904143003 54 0 0.0 0.0 0.00 0.05 0.01 99 1012.6
20260904142403 54 272 0.0 1.0 0.00 0.05 0.01 99 1012.6
20260904141803 53 272 0.0 1.0 0.00 0.05 0.01 99 1012.5
20260904141203 53 272 0.0 1.0 0.00 0.05 0.01 99 1012.4
20260904140603 54 0 0.0 0.0 0.00 0.05 0.01 99 1012.4
20260904140003 54 0 0.0 0.0 0.00 0.05 0.01 99 1012.3
20260904135403 54 0 0.0 0.0 0.00 0.05 0.01 99 1012.2
20260904134803 54 0 0.0 0.0 0.00 0.05 0.01 99 1012.2
20260904134203 54 0 0.0 0.0 0.00 0.05 0.01 99 1012.1
20260904133603 54 0 0.0 0.0 0.00 0.05 0.01 99 1012.1
20260904133003 54 0 0.0 0.0 0.00 0.05 0.01 99 1012.0
20260904132403 54 0 0.0 0.0 0.00 0.05 0.01 99 1012.0
20260904131803 54 0 0.0 1.0 0.00 0.05 0.01 99 1012.0
20260904131204 54 0 0.0 1.0 0.00 0.05 0.01 99 1012.0
20260904130604 54 272 0.0 1.0 0.00 0.05 0.01 99 1012.0
20260904130004 54 272 0.0 1.0 0.00 0.05 0.01 99 1011.9
20260904125404 54 272 0.0 2.0 0.00 0.05 0.01 99 1012.0
20260904124804 54 272 0.0 2.0 0.00 0.05 0.01 99 1011.9
20260904124204 54 272 0.0 2.0 0.00 0.05 0.01 99 1011.8
20260904123603 54 272 0.0 2.0 0.00 0.05 0.01 99 1011.8
20260904123003 54 0 0.0 0.0 0.00 0.05 0.01 99 1011.8
20260904122403 54 0 0.0 0.0 0.00 0.05 0.01 99 1011.8
20260904121803 54 0 0.0 0.0 0.00 0.05 0.01 99 1011.8
20260904121203 54 0 0.0 0.0 0.00 0.05 0.01 99 1011.8
20260904120603 54 272 0.0 2.0 0.00 0.05 0.01 99 1011.8
20260904120003 54 0 0.0 0.0 0.00 0.05 0.01 99 1011.8
20260904115403 55 0 0.0 0.0 0.00 0.05 0.01 99 1011.7
20260904114803 55 0 0.0 0.0 0.00 0.05 0.01 99 1011.7
20260904114203 55 0 0.0 0.0 0.00 0.05 0.01 99 1011.8
20260904113603 55 0 0.0 2.0 0.00 0.05 0.01 99 1011.7
20260904113003 55 272 0.0 2.0 0.00 0.05 0.01 99 1011.7
20260904112403 55 272 0.0 2.0 0.00 0.05 0.01 100 1011.8
20260904111803 54 0 0.0 0.0 0.00 0.05 0.01 99 1011.7
20260904111203 54 0 0.0 0.0 0.00 0.05 0.01 99 1011.7
20260904110603 54 0 0.0 0.0 0.00 0.05 0.01 99 1011.7
20260904110003 54 0 0.0 0.0 0.00 0.05 0.01 99 1011.7
20260904105403 54 0 0.0 0.0 0.01 0.05 0.01 99 1011.7
20260904104804 55 0 0.0 0.0 0.01 0.05 0.01 99 1011.6
20260904104204 55 0 0.0 0.0 0.01 0.05 0.01 99 1011.6
20260904103604 55 0 0.0 0.0 0.01 0.05 0.01 99 1011.6
20260904103004 55 0 0.0 0.0 0.01 0.05 0.01 99 1011.6
20260904102404 55 0 0.0 0.0 0.01 0.05 0.01 99 1011.6
20260904101803 55 0 0.0 0.0 0.01 0.05 0.01 99 1011.5
20260904101204 55 0 0.0 0.0 0.01 0.05 0.01 99 1011.6
20260904100604 55 0 0.0 0.0 0.01 0.05 0.01 99 1011.6
20260904100004 55 0 0.0 0.0 0.01 0.05 0.01 99 1011.5
20260904095404 55 0 0.0 0.0 0.00 0.04 0.00 99 1011.6
20260904094804 55 0 0.0 0.0 0.00 0.04 0.00 99 1011.5
20260904094203 55 0 0.0 0.0 0.00 0.04 0.00 99 1011.6
20260904093603 56 0 0.0 0.0 0.00 0.04 0.00 99 1011.5
20260904093003 56 0 0.0 0.0 0.00 0.04 0.00 99 1011.4
20260904092403 56 0 0.0 0.0 0.00 0.04 0.00 99 1011.5
20260904091803 56 0 0.0 0.0 0.00 0.04 0.00 99 1011.5
20260904091203 56 0 0.0 0.0 0.00 0.04 0.00 99 1011.4
20260904090603 56 0 0.0 0.0 0.00 0.04 0.00 99 1011.5
20260904090003 56 0 0.0 0.0 0.00 0.04 0.00 99 1011.5
20260904085403 57 0 0.0 0.0 0.00 0.04 0.00 99 1011.4
20260904084803 57 0 0.0 0.0 0.00 0.04 0.00 99 1011.4
20260904084203 57 272 0.0 2.0 0.00 0.04 0.00 99 1011.4
20260904083603 57 272 0.0 2.0 0.00 0.04 0.00 99 1011.5
20260904083003 57 272 0.0 2.0 0.00 0.04 0.00 99 1011.5
20260904082403 57 272 1.0 3.0 0.00 0.04 0.00 99 1011.5
20260904081804 57 272 1.0 2.0 0.00 0.04 0.00 100 1011.4
20260904081204 57 272 0.0 2.0 0.00 0.04 0.00 99 1011.3
20260904080604 57 272 1.0 2.0 0.00 0.04 0.00 99 1011.3
20260904080004 58 272 1.0 2.0 0.00 0.04 0.00 99 1011.3
20260904075403 57 272 0.0 1.0 0.00 0.04 0.00 99 1011.3
20260904074803 58 0 0.0 1.0 0.00 0.04 0.00 99 1011.3
20260904074203 58 0 0.0 0.0 0.00 0.04 0.00 99 1011.3